Simultaneous Nadir Overpasses (SNOs) Predictions

Prediction of SNOs between METOP-B and NOAA-19 Satellite Orbit:

Table of predicted SNOs for the next 14.0 days since TLE Epoch: 12/21/2012
Index Date (METOP-B) Time (METOP-B) Lat,Lon (METOP-B) SZA (METOP-B ) Date (NOAA-19) Time (NOAA-19) Lat,Lon (NOAA-19) SZA (NOAA-19 ) Distance(km) Time Diff (sec)
1 12/25/2012 22:07:25 73.34,-158.51 96.72 12/25/2012 22:06:12 73.40,-159.29 96.81 25.67 73
2 12/25/2012 22:58:11 -73.17, 8.43 83.45 12/25/2012 22:57:04 -73.16, 8.53 83.46 3.48 67
3 12/25/2012 23:48:50 73.18, 175.79 96.56 12/25/2012 23:48:12 73.16, 175.74 96.55 2.90 38
4 12/26/2012 00:39:33 -73.16, -16.94 83.46 12/26/2012 00:39:09 -73.16, -17.01 83.45 2.41 24
5 12/26/2012 01:30:13 73.12, 150.31 96.50 12/26/2012 01:30:16 73.12, 150.32 96.50 0.12 3
6
